IW5EFR Vecchia di Pontedera IT current weather conditions

sailwx.info

Wind from 271 at 2 knots gusting 8

Air temperature 30.6° C
Dewpoint 18.3° C

Last reported at 2016-Aug-28 11:45 UTC.
Time now 2016-Aug-28 12:13 UTC

Location: N 43°37' E 010°38'.
View on Google Maps.

See reports from other nearby stations

  
Tides and Currents Weather Stations Pressure Air Temp Water Temp Dewpoint Dewpoint Depression Visibility Wind Speed Wind Dir Waves Ship Positions
date/time (UTC)wind fromknots sea level pressurealtimeterstation pressurevisibilityair tempwater tempwave heightnotes
2016-Aug-28 11:45 271 2 gusting 8 30.6
2016-Aug-28 11:40 341 7 gusting 7 30.0
2016-Aug-28 11:35 270 6 gusting 7 30.6
2016-Aug-28 11:30 277 1 gusting 7 30.6
2016-Aug-28 11:25 273 30.0
2016-Aug-28 11:20 266 0 gusting 8 30.0
2016-Aug-28 11:15 286 30.0
2016-Aug-28 11:10 277 2 gusting 7 29.4
2016-Aug-28 11:05 284 3 gusting 7 29.4
2016-Aug-28 11:00 273 6 gusting 6 29.4
2016-Aug-28 10:55 257 2 gusting 6 29.4
2016-Aug-28 10:50 301 3 gusting 6 29.4
2016-Aug-28 10:45 285 3 gusting 6 29.4
2016-Aug-28 10:40 239 2 gusting 7 29.4
2016-Aug-28 10:35 227 1 gusting 7 28.9
2016-Aug-28 10:30 178 0 gusting 7 28.9
2016-Aug-28 10:25 269 0 gusting 7 28.9
2016-Aug-28 10:20 286 28.9
2016-Aug-28 10:15 313 2 gusting 6 28.3
2016-Aug-28 10:10 288 28.3
2016-Aug-28 10:05 288 2 gusting 6 28.3
2016-Aug-28 10:00 298 3 gusting 6 28.3
2016-Aug-28 09:55 298 4 gusting 6 28.3
2016-Aug-28 09:50 302 0 gusting 6 27.8
2016-Aug-28 09:45 302 0 gusting 6 27.8
2016-Aug-28 09:40 323 2 gusting 5 27.2
2016-Aug-28 09:35 351 6 gusting 5 27.2
2016-Aug-28 09:30 337 27.2
2016-Aug-28 09:25 342 3 gusting 3 27.2
2016-Aug-28 09:20 315 27.2
2016-Aug-28 09:15 315 0 gusting 3 26.7
2016-Aug-28 09:10 315 0 gusting 4 26.7
2016-Aug-28 09:05 315 2 gusting 4 26.1
2016-Aug-28 09:00 317 26.1
2016-Aug-28 08:55 317 1 gusting 4 26.1
2016-Aug-28 08:50 298 0 gusting 3 26.1
2016-Aug-28 08:45 242 1 gusting 3 26.1
2016-Aug-28 08:40 242 1 gusting 2 25.6
2016-Aug-28 08:35 167 25.6
2016-Aug-28 08:30 167 2 gusting 2 25.6
2016-Aug-28 08:25 167 1 gusting 2 25.0
2016-Aug-28 08:20 167 25.0
2016-Aug-28 08:15 167 0 gusting 1 24.4
2016-Aug-28 08:10 167 24.4
2016-Aug-28 08:05 167 23.9
2016-Aug-28 08:00 167 23.9
2016-Aug-28 07:55 167 0 gusting 4 23.3
2016-Aug-28 07:50 167 23.3
2016-Aug-28 07:45 167 22.8
2016-Aug-28 07:40 167 22.8
2016-Aug-28 07:35 167 0 gusting 2 22.8
2016-Aug-28 07:30 167 22.2
2016-Aug-28 07:25 167 22.2
2016-Aug-28 07:20 167 21.7
2016-Aug-28 07:15 167 21.1
2016-Aug-28 07:10 167 21.1
2016-Aug-28 07:05 167 20.6
2016-Aug-28 07:00 167 20.6
2016-Aug-28 06:55 167 20.0
2016-Aug-28 06:50 167 20.0
2016-Aug-28 06:45 167 19.4
2016-Aug-28 06:40 167 18.9
2016-Aug-28 06:35 167 18.9
2016-Aug-28 06:30 167 18.3
2016-Aug-28 06:25 167 0 gusting 3 18.3
2016-Aug-28 06:20 167 1 gusting 4 17.8
2016-Aug-28 06:15 167 1 gusting 4 17.8
2016-Aug-28 06:10 167 3 gusting 3 17.2
2016-Aug-28 06:05 167 4 gusting 3 17.2
2016-Aug-28 06:00 167 1 gusting 4 16.7
2016-Aug-28 05:55 167 2 gusting 4 16.7
2016-Aug-28 05:50 167 1 gusting 3 16.7
2016-Aug-28 05:45 167 2 gusting 3 16.1
2016-Aug-28 05:40 167 2 gusting 3 16.1
2016-Aug-28 05:35 167 2 gusting 3 16.1
2016-Aug-28 05:30 167 1 gusting 2 15.6
2016-Aug-28 05:25 167 2 gusting 2 15.6
2016-Aug-28 05:20 167 15.6
2016-Aug-28 05:15 167 15.6
2016-Aug-28 05:10 167 0 gusting 2 15.6
2016-Aug-28 05:05 167 0 gusting 2 15.6
2016-Aug-28 05:00 167 15.6
2016-Aug-28 04:55 167 1 gusting 3 15.6
2016-Aug-28 04:50 167 15.6
2016-Aug-28 04:45 167 1 gusting 4 15.6
2016-Aug-28 04:40 167 2 gusting 3 15.6
2016-Aug-28 04:35 167 2 gusting 3 15.6
2016-Aug-28 04:30 167 1 gusting 4 15.6
2016-Aug-28 04:25 167 15.6
2016-Aug-28 04:20 167 2 gusting 3 15.6
2016-Aug-28 04:15 167 1 gusting 3 15.6
2016-Aug-28 04:10 167 15.6
2016-Aug-28 04:05 167 15.6
2016-Aug-28 04:00 167 16.1
2016-Aug-28 03:55 167 16.1
2016-Aug-28 03:50 167 2 gusting 4 16.1
2016-Aug-28 03:45 167 1 gusting 4 16.1
2016-Aug-28 03:40 167 16.1
2016-Aug-28 03:35 167 0 gusting 4 16.1
2016-Aug-28 03:30 167 3 gusting 2 16.1
2016-Aug-28 03:25 167 0 gusting 2 16.1
2016-Aug-28 03:20 167 16.1
2016-Aug-28 03:15 167 1 gusting 3 16.1
2016-Aug-28 03:10 167 1 gusting 3 16.1
2016-Aug-28 03:05 168 0 gusting 3 16.1
2016-Aug-28 03:00 168 2 gusting 1 16.1
2016-Aug-28 02:55 168 16.1
2016-Aug-28 02:50 168 16.1
2016-Aug-28 02:45 168 16.1
2016-Aug-28 02:40 168 16.1
2016-Aug-28 02:35 168 16.7
2016-Aug-28 02:30 168 0 gusting 4 16.7
2016-Aug-28 02:25 168 0 gusting 4 16.7
2016-Aug-28 02:20 168 2 gusting 5 16.7
2016-Aug-28 02:15 168 2 gusting 5 16.7
2016-Aug-28 02:10 168 3 gusting 4 16.7
2016-Aug-28 02:05 167 4 gusting 4 16.7
2016-Aug-28 02:00 167 3 gusting 5 16.7
2016-Aug-28 01:55 167 3 gusting 5 16.7
2016-Aug-28 01:50 166 4 gusting 4 16.7
2016-Aug-28 01:45 166 3 gusting 4 16.7
2016-Aug-28 01:40 167 2 gusting 4 16.7
2016-Aug-28 01:35 167 3 gusting 4 16.7
2016-Aug-28 01:30 167 1 gusting 4 16.7
2016-Aug-28 01:25 167 1 gusting 4 17.2
2016-Aug-28 01:20 167 2 gusting 4 17.2
2016-Aug-28 01:15 168 3 gusting 4 17.2
2016-Aug-28 01:10 168 2 gusting 4 17.2
2016-Aug-28 01:05 168 3 gusting 4 17.2
2016-Aug-28 01:00 172 2 gusting 4 17.2
2016-Aug-28 00:55 175 2 gusting 4 17.2
2016-Aug-28 00:50 175 3 gusting 4 17.2
2016-Aug-28 00:45 176 1 gusting 4 17.8
2016-Aug-28 00:40 176 2 gusting 4 17.8
2016-Aug-28 00:35 177 3 gusting 4 17.8
2016-Aug-28 00:30 178 2 gusting 3 17.8
2016-Aug-28 00:25 178 0 gusting 3 17.8
2016-Aug-28 00:20 178 3 17.8
2016-Aug-28 00:15 178 2 17.8
2016-Aug-28 00:10 178 17.8
2016-Aug-28 00:05 178 17.8
2016-Aug-28 00:00 178 17.8
2016-Aug-27 23:55 178 0 gusting 3 17.8
2016-Aug-27 23:50 178 0 gusting 4 17.8
2016-Aug-27 23:45 178 17.8
2016-Aug-27 23:40 178 0 gusting 4 18.3
2016-Aug-27 23:35 178 3 gusting 4 18.3
2016-Aug-27 23:30 178 2 gusting 4 18.3
2016-Aug-27 23:25 179 1 gusting 4 18.3
2016-Aug-27 23:20 179 2 gusting 4 18.3
2016-Aug-27 23:15 179 0 gusting 4 18.3
2016-Aug-27 23:10 179 1 gusting 4 18.3
2016-Aug-27 23:05 180 2 gusting 4 18.9
2016-Aug-27 23:00 180 3 gusting 3 18.9
2016-Aug-27 22:55 180 1 gusting 3 18.9
2016-Aug-27 22:50 180 2 gusting 3 18.9
2016-Aug-27 22:45 259 3 gusting 3 18.9
2016-Aug-27 22:40 259 2 gusting 2 19.4
2016-Aug-27 22:35 259 1 gusting 2 19.4
2016-Aug-27 22:30 259 1 gusting 2 19.4
2016-Aug-27 22:25 259 1 gusting 2 19.4
2016-Aug-27 22:20 259 1 gusting 1 19.4
2016-Aug-27 22:15 259 1 gusting 1 20.0
2016-Aug-27 22:10 259 20.0
2016-Aug-27 22:05 259 20.0
2016-Aug-27 22:00 259 1 gusting 2 20.6
2016-Aug-27 21:55 259 1 gusting 2 21.1
2016-Aug-27 21:50 259 21.7
2016-Aug-27 21:45 259 1 gusting 1 22.2
2016-Aug-27 21:40 259 22.8
2016-Aug-27 21:35 259 22.8
2016-Aug-27 21:30 259 22.8
2016-Aug-27 21:25 260 22.8
2016-Aug-27 21:20 259 2 gusting 5 23.3
2016-Aug-27 21:15 259 1 gusting 5 23.3
2016-Aug-27 21:10 259 1 gusting 4 22.8
2016-Aug-27 21:05 259 1 gusting 4 22.8
2016-Aug-27 21:00 259 3 22.2
2016-Aug-27 20:55 259 22.2
2016-Aug-27 20:50 259 22.2
2016-Aug-27 20:45 259 22.8
2016-Aug-27 20:40 259 22.8
2016-Aug-27 20:35 259 22.8
2016-Aug-27 20:30 259 23.3
2016-Aug-27 20:25 260 23.3
2016-Aug-27 20:20 260 23.3
2016-Aug-27 20:15 259 23.3
2016-Aug-27 20:10 259 23.9
2016-Aug-27 20:05 259 23.9
2016-Aug-27 20:00 259 23.9
2016-Aug-27 19:55 259 23.9
2016-Aug-27 19:50 259 24.4
2016-Aug-27 19:45 259 24.4
2016-Aug-27 19:40 260 25.0
2016-Aug-27 19:35 259 25.6
2016-Aug-27 19:30 259 26.1
2016-Aug-27 19:25 259 26.1
2016-Aug-27 19:20 260 26.1
2016-Aug-27 19:15 260 0 gusting 2 26.1
2016-Aug-27 19:10 259 26.7
2016-Aug-27 19:05 259 26.7
2016-Aug-27 19:00 260 2 gusting 5 26.7
2016-Aug-27 18:55 260 0 gusting 5 26.7
2016-Aug-27 18:45 259 5 gusting 5 27.2
2016-Aug-27 18:40 259 2 gusting 7 27.2
2016-Aug-27 18:35 259 27.2
2016-Aug-27 18:30 259 2 gusting 6 27.2
2016-Aug-27 18:25 240 3 gusting 6 27.8
2016-Aug-27 18:20 256 4 gusting 7 27.8
2016-Aug-27 18:15 254 1 gusting 7 27.8
2016-Aug-27 18:10 249 4 gusting 8 28.3
2016-Aug-27 18:05 260 2 gusting 8 28.3
2016-Aug-27 18:00 260 28.3
2016-Aug-27 17:55 259 5 gusting 6 28.9
2016-Aug-27 17:50 263 2 gusting 6 28.9
2016-Aug-27 17:45 262 0 gusting 6 29.4
2016-Aug-27 17:40 265 1 gusting 6 29.4
2016-Aug-27 17:35 265 1 gusting 6 30.0
2016-Aug-27 17:30 263 2 gusting 6 30.0
2016-Aug-27 17:25 261 2 gusting 6 30.0
2016-Aug-27 17:20 264 5 gusting 6 30.0
2016-Aug-27 17:15 254 4 gusting 6 30.6
2016-Aug-27 17:10 292 2 gusting 8 30.6
2016-Aug-27 17:05 248 4 gusting 8 30.6
2016-Aug-27 17:00 285 4 gusting 7 30.6
2016-Aug-27 16:55 275 4 gusting 7 30.6
2016-Aug-27 16:50 262 3 gusting 10 31.1
2016-Aug-27 16:45 270 5 gusting 10 31.1
2016-Aug-27 16:40 296 5 gusting 8 31.1
2016-Aug-27 16:35 248 5 gusting 8 31.1
2016-Aug-27 16:30 254 5 gusting 8 31.7
2016-Aug-27 16:25 303 1 gusting 8 31.7
2016-Aug-27 16:20 266 1 gusting 8 31.7
2016-Aug-27 16:15 302 5 gusting 8 31.7
2016-Aug-27 16:10 280 3 gusting 11 31.7
2016-Aug-27 16:05 257 6 gusting 11 31.7
2016-Aug-27 16:00 298 5 gusting 10 31.7
2016-Aug-27 15:55 298 5 gusting 10 31.7
2016-Aug-27 15:50 273 5 gusting 10 32.2
2016-Aug-27 15:45 281 7 gusting 10 32.2
2016-Aug-27 15:40 269 6 gusting 10 32.2
2016-Aug-27 15:35 300 3 gusting 10 32.2
2016-Aug-27 15:30 302 4 gusting 8 32.2
2016-Aug-27 15:25 265 2 gusting 8 32.2
2016-Aug-27 15:20 277 3 gusting 8 32.8
2016-Aug-27 15:15 335 3 gusting 8 32.8
2016-Aug-27 15:10 259 5 gusting 10 32.8
2016-Aug-27 15:05 294 4 gusting 10 32.2
2016-Aug-27 15:00 252 6 gusting 8 32.8
2016-Aug-27 14:55 250 5 gusting 8 32.8
2016-Aug-27 14:50 355 3 gusting 13 32.8
2016-Aug-27 14:41 336 9 gusting 9 32.8
2016-Aug-27 14:36 005 10 gusting 9 32.8
2016-Aug-27 14:31 285 6 gusting 11 32.8
2016-Aug-27 14:26 317 4 gusting 11 32.8
2016-Aug-27 14:21 255 4 gusting 13 32.8
2016-Aug-27 14:16 272 2 gusting 13 32.8
2016-Aug-27 14:11 305 6 gusting 8 32.8
2016-Aug-27 14:06 261 4 gusting 8 32.8
2016-Aug-27 14:01 253 1 gusting 11 32.8
2016-Aug-27 13:56 273 6 gusting 11 32.8
2016-Aug-27 13:51 290 6 gusting 10 32.8
2016-Aug-27 13:46 266 2 gusting 10 32.8
2016-Aug-27 13:41 273 4 gusting 11 32.8
2016-Aug-27 13:36 273 6 gusting 11 32.8
2016-Aug-27 13:31 288 32.2
2016-Aug-27 13:26 350 6 gusting 10 32.2
2016-Aug-27 13:21 319 8 gusting 12 32.8
2016-Aug-27 13:16 262 5 gusting 12 32.8
2016-Aug-27 13:11 279 3 gusting 13 32.8
2016-Aug-27 13:06 293 3 gusting 13 32.8
2016-Aug-27 13:01 324 6 gusting 10 32.8
2016-Aug-27 12:56 322 2 gusting 10 32.8
2016-Aug-27 12:51 283 3 gusting 8 32.8
2016-Aug-27 12:46 271 6 gusting 8 32.8
2016-Aug-27 12:41 280 6 gusting 10 32.8
2016-Aug-27 12:36 323 3 gusting 10 32.8
2016-Aug-27 12:31 317 7 gusting 9 32.8
2016-Aug-27 12:26 320 4 gusting 9 32.8
2016-Aug-27 12:21 296 5 gusting 6 32.8
2016-Aug-27 12:16 275 0 gusting 6 32.8
2016-Aug-27 12:11 261 4 gusting 7 32.8
2016-Aug-27 12:05 338 1 gusting 7 32.8
2016-Aug-27 12:00 338 2 gusting 6 32.8
2016-Aug-27 11:56 327 3 gusting 6 32.8
2016-Aug-27 11:51 319 4 gusting 3 32.8
2016-Aug-27 11:46 275 0 gusting 3 32.2
2016-Aug-27 11:41 276 32.2
2016-Aug-27 11:36 277 1 gusting 5 32.8
2016-Aug-27 11:30 277 32.2
2016-Aug-27 11:25 350 32.2
2016-Aug-27 11:21 351 2 gusting 5 32.2
2016-Aug-27 11:15 317 0 gusting 5 32.2
2016-Aug-27 11:10 309 2 gusting 6 31.7
2016-Aug-27 11:05 317 2 gusting 6 31.7
2016-Aug-27 11:00 315 1 gusting 5 31.7
2016-Aug-27 10:55 277 3 gusting 5 31.7
2016-Aug-27 10:50 281 1 gusting 4 31.1
2016-Aug-27 10:45 016 31.1
2016-Aug-27 10:40 017 1 gusting 6 31.1
2016-Aug-27 10:35 005 31.1
2016-Aug-27 10:30 005 3 gusting 5 31.1
2016-Aug-27 10:25 009 0 gusting 5 31.1
2016-Aug-27 10:20 046 2 gusting 4 31.1
2016-Aug-27 10:15 049 31.1
2016-Aug-27 10:10 049 31.1
2016-Aug-27 10:05 094 1 gusting 3 31.1
2016-Aug-27 10:00 115 30.6
2016-Aug-27 09:55 115 30.6
2016-Aug-27 09:46 117 1 gusting 3 30.0
2016-Aug-27 09:41 131 30.0
2016-Aug-27 09:36 131 29.4
2016-Aug-27 09:31 132 1 gusting 5 29.4
2016-Aug-27 09:26 111 29.4
2016-Aug-27 09:21 017 0 gusting 6 28.9
2016-Aug-27 09:16 084 4 gusting 6 28.9
2016-Aug-27 09:11 105 1 gusting 8 28.9
2016-Aug-27 09:06 032 0 gusting 8 28.9
2016-Aug-27 09:01 079 2 gusting 6 28.3
2016-Aug-27 08:56 102 28.3
2016-Aug-27 08:51 096 28.3
2016-Aug-27 08:46 094 1 gusting 6 27.8
2016-Aug-27 08:41 093 27.8
2016-Aug-27 08:36 028 1 gusting 5 27.2
2016-Aug-27 08:31 086 1 gusting 5 27.2
2016-Aug-27 08:26 096 26.7
2016-Aug-27 08:21 051 0 gusting 5 26.7
2016-Aug-27 08:16 057 0 gusting 5 26.1
2016-Aug-27 08:11 080 26.1
2016-Aug-27 08:06 111 0 gusting 6 26.1
2016-Aug-27 08:01 111 6 gusting 2 26.1
2016-Aug-27 07:56 081 1 gusting 2 25.6
2016-Aug-27 07:51 082 25.6
2016-Aug-27 07:46 082 1 gusting 6 25.0
2016-Aug-27 07:41 084 0 gusting 4 25.0
2016-Aug-27 07:36 089 0 gusting 4 24.4
2016-Aug-27 07:31 084 2 gusting 6 24.4
2016-Aug-27 07:26 080 23.9
2016-Aug-27 07:21 078 1 gusting 5 23.3
2016-Aug-27 07:16 327 22.8
2016-Aug-27 07:11 327 3 gusting 2 22.2
2016-Aug-27 07:06 191 2 gusting 2 21.7
2016-Aug-27 07:01 191 21.1
2016-Aug-27 06:56 191 1 gusting 3 21.1
2016-Aug-27 06:51 191 0 gusting 2 20.6
2016-Aug-27 06:46 191 1 gusting 2 20.6
2016-Aug-27 06:41 191 20.6
2016-Aug-27 06:36 191 20.0
2016-Aug-27 06:31 191 0 gusting 2 19.4
2016-Aug-27 06:26 191 18.9
2016-Aug-27 06:21 191 1 gusting 2 18.9
2016-Aug-27 06:16 191 0 gusting 2 18.9
2016-Aug-27 06:11 191 2 gusting 2 18.3
2016-Aug-27 06:06 191 1 gusting 2 18.3
2016-Aug-27 06:01 191 17.8
2016-Aug-27 05:56 191 0 gusting 2 17.8
2016-Aug-27 05:51 191 1 gusting 2 17.2
2016-Aug-27 05:46 191 1 gusting 2 17.2
2016-Aug-27 05:40 191 0 gusting 3 16.7
2016-Aug-27 05:36 191 1 gusting 3 16.7
2016-Aug-27 05:31 191 1 gusting 3 16.7
2016-Aug-27 05:26 191 2 gusting 3 16.7
2016-Aug-27 05:21 191 2 gusting 3 16.1
2016-Aug-27 05:16 191 1 gusting 3 16.1
2016-Aug-27 05:11 191 16.1
2016-Aug-27 05:05 191 2 gusting 3 16.1
2016-Aug-27 05:00 191 1 gusting 1 16.1
2016-Aug-27 04:55 191 16.1
2016-Aug-27 04:50 191 1 gusting 2 16.1
2016-Aug-27 04:45 191 16.1
2016-Aug-27 04:40 191 16.1
2016-Aug-27 04:35 191 0 gusting 2 16.1
2016-Aug-27 04:30 191 16.1
2016-Aug-27 04:25 191 16.7
2016-Aug-27 04:20 191 0 gusting 3 16.7
2016-Aug-27 04:15 191 1 gusting 3 16.7
2016-Aug-27 04:10 191 1 gusting 3 16.7
2016-Aug-27 04:05 191 0 gusting 3 16.7
2016-Aug-27 04:00 191 0 gusting 4 16.7
2016-Aug-27 03:55 191 1 gusting 4 16.7
2016-Aug-27 03:50 191 1 gusting 4 17.2
2016-Aug-27 03:45 191 0 gusting 4 17.2
2016-Aug-27 03:40 191 1 gusting 3 17.2
2016-Aug-27 03:35 191 0 gusting 3 17.2
2016-Aug-27 03:30 191 3 gusting 4 17.2
2016-Aug-27 03:25 191 2 gusting 4 17.2
2016-Aug-27 03:20 191 1 gusting 3 17.2
2016-Aug-27 03:15 192 2 gusting 3 17.2
2016-Aug-27 03:10 192 3 gusting 4 17.2
2016-Aug-27 03:05 192 0 gusting 4 17.2
2016-Aug-27 03:00 196 1 gusting 4 16.7
2016-Aug-27 02:55 196 1 gusting 4 16.7
2016-Aug-27 02:50 198 3 gusting 3 16.7
2016-Aug-27 02:45 199 3 gusting 3 17.2
2016-Aug-27 02:40 200 2 gusting 3 17.2
2016-Aug-27 02:35 200 2 gusting 3 17.2
2016-Aug-27 02:30 200 2 gusting 4 17.2
2016-Aug-27 02:25 200 1 gusting 4 17.2
2016-Aug-27 02:20 202 3 gusting 4 17.2
2016-Aug-27 02:15 202 1 gusting 4 17.8
2016-Aug-27 02:10 202 2 gusting 2 17.8
2016-Aug-27 02:05 202 2 gusting 2 17.8
2016-Aug-27 02:00 202 1 gusting 2 17.2
2016-Aug-27 01:55 202 0 gusting 2 17.8
2016-Aug-27 01:50 202 0 17.2
2016-Aug-27 01:45 202 17.2
2016-Aug-27 01:40 202 17.2
2016-Aug-27 01:35 202 17.8
2016-Aug-27 01:30 202 17.2
2016-Aug-27 01:25 202 17.8
2016-Aug-27 01:20 202 17.8
2016-Aug-27 01:15 202 17.8
2016-Aug-27 01:10 202 2 gusting 4 17.8
2016-Aug-27 01:05 203 2 gusting 4 17.8
2016-Aug-27 01:00 203 1 gusting 4 17.8
2016-Aug-27 00:55 203 2 gusting 4 17.8
2016-Aug-27 00:51 206 3 gusting 3 17.8
2016-Aug-27 00:47 206 2 gusting 3 17.8
2016-Aug-27 00:35 206 17.8
2016-Aug-27 00:30 206 1 gusting 3 17.8
2016-Aug-27 00:25 206 1 gusting 3 17.8
2016-Aug-27 00:20 206 2 gusting 2 18.3
2016-Aug-27 00:15 206 1 gusting 2 18.3
2016-Aug-27 00:10 206 18.3
2016-Aug-27 00:05 206 0 gusting 2 18.3
2016-Aug-27 00:00 206 18.3
2016-Aug-26 23:55 206 18.3
2016-Aug-26 23:50 206 18.9
2016-Aug-26 23:45 206 18.9
2016-Aug-26 23:40 206 18.9
2016-Aug-26 23:35 206 18.9
2016-Aug-26 23:30 206 0 18.9
2016-Aug-26 23:25 206 1 18.9
2016-Aug-26 23:20 206 18.9
2016-Aug-26 23:15 206 18.9
2016-Aug-26 23:10 206 18.9
2016-Aug-26 23:05 206 19.4
2016-Aug-26 23:00 206 19.4
2016-Aug-26 22:55 206 19.4
2016-Aug-26 22:50 206 19.4
2016-Aug-26 22:45 206 0 19.4
2016-Aug-26 22:40 207 20.0
2016-Aug-26 22:35 207 20.0
2016-Aug-26 22:30 207 20.0
2016-Aug-26 22:25 207 20.0
2016-Aug-26 22:20 207 20.0
2016-Aug-26 22:15 207 0 gusting 3 20.0
2016-Aug-26 22:10 207 20.6
2016-Aug-26 22:05 207 20.6
2016-Aug-26 22:00 207 20.6
2016-Aug-26 21:55 207 0 gusting 3 20.6
2016-Aug-26 21:50 207 1 gusting 3 20.6
2016-Aug-26 21:45 207 0 gusting 3 20.6
2016-Aug-26 21:40 207 1 gusting 3 21.1
2016-Aug-26 21:35 207 2 gusting 3 21.1
2016-Aug-26 21:30 207 2 gusting 3 21.1
2016-Aug-26 21:25 207 1 gusting 3 21.1
2016-Aug-26 21:20 207 1 gusting 2 21.1
2016-Aug-26 21:15 207 21.7
2016-Aug-26 21:10 207 21.7
2016-Aug-26 21:05 207 0 gusting 4 21.7
2016-Aug-26 21:00 209 2 gusting 4 21.7
2016-Aug-26 20:55 210 2 gusting 4 22.2
2016-Aug-26 20:50 237 3 22.2
2016-Aug-26 20:45 257 2 22.2
2016-Aug-26 20:40 257 22.2
2016-Aug-26 20:35 257 22.8
2016-Aug-26 20:30 257 22.8
2016-Aug-26 20:25 257 22.8
2016-Aug-26 20:20 257 22.8
2016-Aug-26 20:15 257 22.8
2016-Aug-26 20:10 257 23.3
2016-Aug-26 20:05 257 23.3
2016-Aug-26 20:00 257 23.9
2016-Aug-26 19:55 257 23.9
2016-Aug-26 19:50 257 24.4
2016-Aug-26 19:45 257 25.0
2016-Aug-26 19:40 257 25.0
2016-Aug-26 19:35 257 25.6
2016-Aug-26 19:30 257 25.6
2016-Aug-26 19:25 257 26.1
2016-Aug-26 19:20 257 26.1
2016-Aug-26 19:15 257 0 gusting 3 26.1
2016-Aug-26 19:10 257 26.1
2016-Aug-26 19:05 257 0 gusting 2 26.1
2016-Aug-26 19:00 257 26.1
2016-Aug-26 18:55 257 0 gusting 1 26.1
2016-Aug-26 18:50 257 26.7
2016-Aug-26 18:45 257 0 gusting 3 26.7
2016-Aug-26 18:40 257 26.7
2016-Aug-26 18:35 257 2 gusting 3 27.2
2016-Aug-26 18:30 257 27.2
2016-Aug-26 18:25 263 27.2
2016-Aug-26 18:20 263 27.2
2016-Aug-26 18:15 263 27.8
2016-Aug-26 18:10 267 1 gusting 5 27.8
2016-Aug-26 18:05 265 27.8
2016-Aug-26 18:00 267 0 gusting 6 28.3
2016-Aug-26 17:55 267 28.3
2016-Aug-26 17:50 267 28.3
2016-Aug-26 17:45 270 4 gusting 6 28.9
2016-Aug-26 17:40 271 2 gusting 7 28.9
2016-Aug-26 17:35 263 29.4
2016-Aug-26 17:30 263 3 gusting 6 29.4
2016-Aug-26 17:25 275 2 gusting 6 30.0
2016-Aug-26 17:20 267 30.0
2016-Aug-26 17:15 286 5 gusting 7 30.6
2016-Aug-26 17:10 281 4 gusting 6 30.6
2016-Aug-26 17:05 259 0 gusting 6 30.6
2016-Aug-26 17:00 271 0 gusting 7 30.6
2016-Aug-26 16:55 271 31.1
2016-Aug-26 16:50 278 3 gusting 11 31.1
2016-Aug-26 16:45 253 5 gusting 11 31.1
2016-Aug-26 16:40 275 4 gusting 11 31.1
2016-Aug-26 16:35 283 8 gusting 11 31.7
2016-Aug-26 16:30 271 4 gusting 6 32.2
2016-Aug-26 16:25 293 0 gusting 6 32.8
2016-Aug-26 16:20 273 3 gusting 4 32.8
2016-Aug-26 16:15 109 32.8
2016-Aug-26 16:10 109 1 gusting 7 32.8
2016-Aug-26 16:05 107 1 gusting 7 32.8
2016-Aug-26 16:00 109 32.8
2016-Aug-26 15:55 132 32.8
2016-Aug-26 15:50 132 32.8
2016-Aug-26 15:45 134 4 gusting 9 32.8
2016-Aug-26 15:40 138 5 gusting 6 32.8
2016-Aug-26 15:35 153 5 gusting 6 32.8
2016-Aug-26 15:30 104 1 gusting 8 32.8
2016-Aug-26 15:25 098 1 gusting 8 32.8
2016-Aug-26 15:20 119 4 gusting 8 32.8
2016-Aug-26 15:15 134 5 gusting 8 32.8
2016-Aug-26 15:10 103 4 gusting 10 32.8
2016-Aug-26 15:05 103 3 gusting 10 32.8
2016-Aug-26 15:00 348 0 gusting 11 32.8
2016-Aug-26 14:55 108 8 gusting 11 32.8
2016-Aug-26 14:50 111 6 gusting 12 32.8
2016-Aug-26 14:45 102 4 gusting 12 32.8
2016-Aug-26 14:40 105 8 gusting 9 32.8
2016-Aug-26 14:35 105 3 gusting 9 32.8
2016-Aug-26 14:30 116 3 gusting 9 32.8
2016-Aug-26 14:25 098 1 gusting 9 32.8
2016-Aug-26 14:20 090 1 gusting 13 32.8
2016-Aug-26 14:15 109 7 gusting 13 32.8
2016-Aug-26 14:10 118 8 gusting 13 32.8
2016-Aug-26 14:05 126 3 gusting 13 32.2
2016-Aug-26 14:00 098 1 gusting 9 32.8
2016-Aug-26 13:55 111 6 gusting 9 32.8
2016-Aug-26 13:50 122 6 gusting 15 32.8
2016-Aug-26 13:45 355 2 gusting 15 32.8
2016-Aug-26 13:40 113 3 gusting 9 32.8
2016-Aug-26 13:35 103 11 gusting 9 32.8
2016-Aug-26 13:30 112 0 gusting 9 32.8
2016-Aug-26 13:25 115 7 gusting 9 32.8
2016-Aug-26 13:20 155 5 gusting 12 32.2
2016-Aug-26 13:15 134 5 gusting 12 32.2
2016-Aug-26 13:10 119 6 gusting 11 32.2
2016-Aug-26 13:05 101 7 gusting 11 32.2
2016-Aug-26 13:00 071 1 gusting 11 32.2
2016-Aug-26 12:55 099 1 gusting 11 32.2
2016-Aug-26 12:50 098 2 gusting 12 32.2
2016-Aug-26 12:45 101 6 gusting 12 31.7
2016-Aug-26 12:40 095 31.7
2016-Aug-26 12:35 090 6 gusting 19 31.7
2016-Aug-26 12:30 116 6 gusting 13 31.7
2016-Aug-26 12:25 095 6 gusting 13 31.7
2016-Aug-26 12:20 089 4 gusting 15 31.7
2016-Aug-26 12:15 083 7 gusting 15 31.7
2016-Aug-26 12:10 167 4 gusting 10 31.7
2016-Aug-26 12:05 104 1 gusting 10 31.7
2016-Aug-26 12:00 089 31.7